Skip Page Navigation
NASA JPL Caltech
NASA Logo - Jet Propulsion Laboratory + View the NASA Portal
+ Center for Near-Earth Object Studies
JPL Home Earth Solar System Stars & Galaxies Technology
JPL Solar System Dynamics
BODIES ORBITS EPHEMERIDES TOOLS PHYSICAL DATA DISCOVERY FAQ SITE MAP
JPL Small-Body Database Browser
Search: [ help ]  
273233 (2006 KC1)
Classification: Main-belt Asteroid          SPK-ID: 2273233
Ephemeris | Orbit Diagram | Orbital Elements | Mission Design | Physical Parameters | Discovery Circumstances | Close-Approach Data ]

[ hide orbit diagram ]

For accurate long-term ephemerides, please instead use our Horizons system.This orbit viewer was implemented using two-body methods, and hence should not be used for determining accurate long-term trajectories (over several years or decades) or planetary encounter circumstances.


[ revert to old Java-based viewer ]

Orbital Elements at Epoch 2459000.5 (2020-May-31.0) TDB
Reference: JPL 17 (heliocentric ecliptic J2000)
 Element Value Uncertainty (1-sigma)   Units 
e .1839922438163907 5.6796e-08  
a 3.138888700998655 3.5602e-08 au
q 2.561357525811997 1.7629e-07 au
i 11.20911139577486 6.2372e-06 deg
node 113.0667273037938 3.212e-05 deg
peri 126.0127422528125 3.5875e-05 deg
M 185.1030919419371 1.8743e-05 deg
tp 2459987.329066679413
(2023-Feb-11.82906668)
0.00011549 TDB
period 2031.244965672285
5.56
3.4558e-05
9.461e-08
d
yr
n .1772312084873771 3.0153e-09 deg/d
Q 3.716419876185313 4.2152e-08 au
  Orbit Determination Parameters
   # obs. used (total)      241  
   data-arc span      8888 days (24.33 yr)  
   first obs. used      1995-07-03  
   last obs. used      2019-11-02  
   planetary ephem.      DE431  
   SB-pert. ephem.      SB431-N16  
   condition code      0  
   norm. resid. RMS      .62565  
   source      ORB  
   producer      Otto Matic  
   solution date      2020-Feb-25 13:40:43  

Additional Information
 Earth MOID = 1.56775 au 
 Jupiter MOID = 1.44845 au 
 T_jup = 3.155 
[ show covariance matrix ]

Ephemeris | Orbit Diagram | Orbital Elements | Mission Design | Physical Parameters | Discovery Circumstances | Close-Approach Data ]

Physical Parameter Table
Parameter Symbol Value Units Sigma Reference Notes
absolute magnitude H 15.6   n/a MPO455029  
diameter diameter 5.689 km 3.387 urn:nasa:pds:neowise_diameters_albedos::2.0[mainbelt] (http://adsabs.harvard.edu/abs/2011ApJ...741...68M)  
geometric albedo albedo 0.029   0.010 urn:nasa:pds:neowise_diameters_albedos::2.0[mainbelt] (http://adsabs.harvard.edu/abs/2011ApJ...741...68M)  

273233 (2006 KC1)          Discovered 2006-May-20 by Lowe, A. at Mayhill
Reference: 20110418/Numbers.arcLast Updated: 2011-04-22

[ show close-approach data ]
Ephemeris | Orbit Diagram | Orbital Elements | Mission Design | Physical Parameters | Discovery Circumstances | Close-Approach Data ]
ABOUT SSD CREDITS/AWARDS PRIVACY/COPYRIGHT GLOSSARY LINKS
FirstGov 2020-Nov-23 23:52 UT
(server date/time)  
NASA Home Page
Site Manager:   Ryan S. Park
Webmaster  Alan B. Chamberlin